Temperature
15 15 15 15 13 11 12 13 15 17 18 21 22 22 20 21 21 21 21 21 20 19 17 16 16 16 16 15 15 15 15 15 15 14 14 14 14 14 13 13 13 13 13 13 13 13 13 13 12
15 15 15 14 12 12 12 14 16 17 19 21 22 22 20 20 21 21 21 20 19 19 17 16 16 15 15 15 15 15 15 14 14 14 14 14 13 13 13 13 13 13 13 13 13 13 13 12 12
14 14 14 12 11 12 14 15 16 18 20 21 21 21 21 21 21 22 22 20 19 18 17 16 15 15 15 15 15 15 14 14 14 14 14 13 13 13 12 12 12 12 12 13 13 13 13 12 12
14 14 14 11 12 13 14 16 17 18 20 21 21 20 20 21 21 22 21 20 19 18 17 16 15 15 15 15 15 15 14 14 13 13 13 13 12 12 12 12 12 12 12 12 13 12 12 12 12
13 13 12 11 12 14 14 16 17 17 18 20 20 18 19 20 21 21 21 20 19 18 17 16 15 15 15 15 14 14 14 14 13 13 12 12 12 12 12 12 12 12 12 12 12 12 12 12 12
13 11 11 12 13 14 15 17 17 17 18 19 19 18 19 20 20 21 20 20 19 18 16 15 15 15 15 14 14 14 14 13 13 12 12 12 12 12 12 12 12 12 12 12 12 12 12 12 11
12 11 11 12 13 14 16 17 17 16 17 19 20 17 17 19 20 20 19 19 18 17 16 15 14 14 14 14 14 14 13 13 13 12 12 12 12 12 12 12 11 11 11 12 12 12 12 11 11
12 11 12 12 13 14 16 18 18 18 18 21 21 17 17 18 18 18 18 17 16 16 15 15 14 14 14 14 13 13 13 13 12 12 12 12 12 12 12 12 11 11 11 11 12 12 11 11 11
12 11 12 12 13 14 17 17 18 19 20 20 20 21 21 19 17 17 16 15 15 15 15 15 14 14 14 14 13 13 12 12 12 12 12 12 12 12 12 11 11 11 11 11 11 11 11 11 10
11 11 12 14 14 15 16 16 17 18 17 18 19 20 20 18 17 16 16 15 15 14 14 14 14 14 14 13 13 13 12 12 12 12 12 12 12 12 11 11 11 11 11 11 11 11 11 11 10
10 11 12 14 15 15 15 16 17 16 16 17 18 19 18 17 16 16 16 17 16 15 14 14 14 14 13 13 13 12 12 12 12 12 12 12 11 11 11 11 11 11 11 11 11 11 11 10 10
10 11 12 13 14 14 15 15 16 16 17 18 19 19 18 17 16 16 16 16 15 15 14 14 14 14 13 13 13 13 12 12 12 12 12 12 12 11 11 11 11 11 11 11 11 11 10 10 10
10 11 12 13 13 14 14 14 15 16 17 17 18 18 17 17 17 17 17 16 15 15 14 14 14 14 13 13 13 13 13 12 12 12 12 12 12 11 11 11 11 11 11 11 11 10 10 10 10
10 10 11 12 12 13 13 14 14 15 16 17 17 17 17 17 17 16 15 15 15 15 15 14 14 14 13 13 13 13 13 12 12 12 12 12 12 12 11 11 11 11 11 11 10 10 10 10 10
10 9 10 11 12 12 13 12 13 15 16 16 16 17 17 17 17 17 16 16 16 16 15 15 14 14 14 13 13 13 13 12 12 12 12 12 12 11 11 11 11 11 11 10 10 10 10 10 10
9 8 8 10 11 12 12 11 13 15 15 15 16 16 16 17 17 17 17 17 17 16 15 15 14 14 14 14 13 13 13 13 12 12 12 12 11 11 11 11 11 11 10 10 10 10 10 10 10
7 7 8 10 11 12 11 11 13 15 15 15 15 16 16 16 16 17 17 17 17 16 16 15 14 14 14 14 13 13 13 13 12 12 12 12 11 11 11 11 11 11 10 10 10 10 10 10 10
6 7 8 9 11 11 11 11 12 14 14 14 15 15 16 16 17 17 17 17 17 16 16 15 15 14 14 14 13 13 13 13 12 12 12 12 11 11 11 11 11 11 10 10 10 10 10 10 10
8 7 7 9 10 10 10 11 11 13 13 13 14 15 15 16 17 17 17 17 16 16 16 15 15 14 14 13 13 13 13 13 12 12 12 12 12 11 11 11 11 11 10 10 10 10 10 9 9
7 7 7 8 10 10 9 10 11 12 12 13 14 14 15 16 16 17 17 17 16 16 16 16 15 15 14 14 14 14 14 13 13 12 12 12 12 12 11 11 11 11 10 10 10 10 10 10 9
7 7 7 8 8 9 9 9 10 11 12 13 14 15 15 16 16 16 17 17 16 16 16 16 16 15 15 15 14 13 12 12 12 12 12 12 12 12 12 12 11 11 11 11 10 10 10 10 10
6 8 8 8 7 7 8 7 8 10 11 12 13 14 15 15 16 17 17 17 17 17 17 17 16 16 16 15 14 13 13 13 13 13 13 12 12 12 12 12 11 11 11 11 11 10 10 10 10
6 8 8 7 7 6 7 6 7 9 10 11 12 14 15 15 16 17 17 17 17 17 17 17 17 16 16 15 14 14 14 14 14 13 13 12 12 12 12 12 11 11 11 11 11 10 10 10 10
7 7 6 6 6 5 6 6 7 8 10 11 12 13 15 15 16 16 17 17 17 17 17 17 16 16 16 15 15 14 14 14 13 13 13 12 12 12 12 12 11 11 11 11 11 11 10 10 10
6 5 4 4 4 5 7 7 7 8 10 11 12 13 14 15 15 16 16 17 17 17 17 16 16 16 16 15 15 15 15 14 14 14 13 13 12 12 12 12 12 12 12 11 11 10 10 10 10
5 5 4 4 4 5 6 7 8 9 10 12 12 13 14 14 15 15 16 16 17 17 17 16 16 16 16 15 15 15 15 14 14 14 14 13 13 14 14 13 12 12 12 11 11 10 10 10 10
4 4 5 4 4 4 5 6 7 9 9 10 11 12 12 13 14 15 15 16 17 17 17 17 16 16 16 16 16 15 15 14 14 14 14 14 14 14 13 13 12 12 12 11 11 10 10 10 10
5 5 4 4 4 4 5 6 7 8 9 9 9 10 11 12 13 14 15 16 16 17 17 17 16 16 16 16 16 15 15 15 14 14 13 13 13 13 13 13 12 12 12 11 11 10 10 10 9
4 4 4 3 3 4 4 6 8 8 9 9 9 10 11 12 12 13 14 15 16 16 16 16 16 16 16 16 16 15 15 15 14 14 14 13 13 13 13 13 12 12 11 11 10 10 10 9 9
4 3 3 3 2 3 3 6 9 8 9 9 9 10 10 11 12 12 13 14 15 15 16 16 16 15 15 16 15 15 15 14 14 14 13 13 13 13 13 12 12 12 11 11 11 10 10 9 9
Wind_Speed
4 1 4 4 3 0 7 8 6 6 5 6 6 5 7 7 6 5 4 13 16 20 22 27 27 27 26 25 24 23 23 22 21 21 20 20 20 19 19 18 18 18 18 18 18 18 17 17 17
0 2 4 4 4 6 8 8 11 14 9 4 3 3 4 3 2 7 9 13 20 20 22 25 27 27 27 26 25 24 23 22 22 21 21 20 20 19 19 19 18 18 18 18 17 17 17 16 16
1 3 3 4 6 10 8 7 14 12 11 8 4 1 5 6 6 9 9 18 20 18 21 25 28 27 27 26 25 24 23 22 22 21 21 20 20 19 19 18 18 18 18 17 17 16 16 15 15
1 2 2 5 14 12 9 7 4 6 7 6 5 2 2 3 8 8 16 20 20 17 19 25 28 28 27 26 25 25 24 23 22 22 21 21 20 19 19 18 18 18 17 17 16 15 15 14 14
2 3 5 10 16 10 10 12 9 9 6 6 3 4 1 2 7 16 21 21 21 17 17 25 28 28 27 26 26 25 24 24 23 22 21 21 20 20 19 18 18 17 17 16 15 15 14 14 14
2 4 8 16 17 11 11 11 9 11 10 8 4 4 2 2 12 17 19 20 19 18 16 23 28 27 27 26 26 25 24 24 23 22 21 21 21 20 19 18 17 17 16 16 15 14 13 13 13
5 6 11 12 12 13 13 10 10 12 13 11 7 5 3 5 11 16 16 17 17 16 15 16 22 24 26 26 25 25 24 24 23 22 22 21 21 20 19 17 17 16 16 15 14 13 13 13 12
5 5 10 11 13 14 9 8 8 10 12 7 7 9 8 9 11 14 15 15 15 14 13 12 15 19 20 23 25 25 24 23 23 22 21 21 20 19 18 17 16 16 15 14 13 12 12 12 11
4 9 17 15 12 8 6 8 8 6 6 4 4 8 9 16 17 18 16 14 15 16 13 13 13 14 17 19 23 23 23 23 23 22 22 20 17 17 16 16 16 15 14 14 13 12 11 9 9
8 16 22 10 8 6 7 9 8 5 6 4 3 1 9 18 22 23 23 22 22 20 17 15 14 14 15 17 18 18 19 20 19 19 19 17 16 15 15 16 15 15 14 13 12 11 9 7 6
8 14 11 10 9 8 11 12 7 6 9 7 5 6 14 18 20 23 23 24 23 22 20 18 16 15 14 11 13 12 14 15 17 19 19 17 15 14 13 12 12 13 12 10 10 8 7 5 5
8 11 10 10 9 11 12 11 11 10 12 8 7 13 18 20 21 22 23 22 20 21 20 18 17 16 13 12 11 11 10 11 12 17 19 16 10 9 10 9 10 10 10 8 7 6 5 4 5
15 14 13 12 12 14 14 15 13 16 12 6 5 11 18 20 19 19 19 19 20 22 21 20 19 18 15 12 11 11 10 11 14 16 18 17 10 7 8 9 10 10 10 9 7 6 5 4 5
9 11 13 13 13 13 16 17 14 17 10 6 8 12 15 18 18 14 14 17 21 22 22 21 21 19 16 14 12 11 11 13 14 15 17 19 15 11 9 7 8 9 10 10 9 7 5 4 5
7 10 14 14 13 10 10 17 21 17 10 10 11 13 14 15 15 17 20 21 22 22 22 22 22 20 19 16 14 12 12 14 12 14 18 19 17 15 12 7 6 9 12 11 8 6 5 4 4
5 8 12 11 11 11 11 21 17 10 11 13 12 12 14 15 16 17 18 19 20 20 21 22 21 21 20 17 14 12 12 13 12 15 17 19 19 18 13 8 7 11 11 9 5 4 4 3 3
6 10 13 10 9 8 12 15 10 9 11 14 13 12 13 14 15 15 16 18 20 21 22 23 21 22 20 18 14 12 12 12 12 15 15 18 20 20 14 9 9 13 9 6 6 4 4 4 4
9 9 10 10 6 10 14 16 10 8 11 13 13 12 13 15 18 16 17 18 19 20 21 22 21 21 19 15 12 11 11 11 11 12 15 18 19 19 15 10 10 12 7 6 5 5 4 4 4
10 10 12 11 7 9 15 18 15 12 11 13 13 13 14 16 16 16 18 18 18 19 21 23 21 21 18 16 15 15 14 13 12 11 15 19 18 19 14 8 9 9 8 8 8 5 5 3 3
16 16 15 11 9 10 12 18 15 15 15 14 15 15 15 14 14 15 16 18 19 22 23 24 24 23 22 18 16 13 11 9 10 9 12 18 18 18 15 11 10 9 8 9 8 6 5 3 4
16 16 13 11 8 8 9 13 14 13 14 16 15 15 14 16 16 15 16 18 20 22 24 23 25 24 23 18 12 10 8 6 7 11 12 14 18 18 15 13 11 10 10 10 9 9 8 5 4
15 11 12 11 7 6 6 8 10 12 15 17 17 15 16 15 15 15 16 18 20 22 22 23 25 24 23 20 18 19 16 14 13 13 11 12 15 16 17 15 13 12 10 10 10 9 6 7 5
9 6 10 11 10 9 8 8 9 8 15 17 17 17 16 15 15 15 16 18 19 22 22 22 23 24 23 22 22 21 16 13 8 9 12 12 12 14 15 15 13 13 11 11 11 9 8 7 6
7 4 6 6 5 11 13 11 9 9 15 13 14 15 16 15 15 14 15 15 17 19 20 20 22 23 24 24 23 23 21 16 14 13 14 13 10 11 14 14 13 12 11 12 11 11 11 9 7
5 4 3 4 6 9 8 10 11 10 11 15 15 14 14 14 13 12 12 14 15 18 20 20 22 23 23 25 24 24 23 20 19 17 16 14 11 11 16 15 14 13 11 11 10 11 11 10 9
8 8 7 6 6 4 5 11 9 9 10 10 11 11 10 10 11 12 13 14 16 18 20 21 22 22 24 25 24 22 21 17 16 16 14 16 14 14 14 15 14 13 12 12 11 10 10 9 10
6 8 7 4 4 4 6 7 7 5 7 8 8 8 10 11 11 10 11 12 14 17 20 22 23 21 23 24 23 22 21 19 17 16 15 13 11 11 13 14 13 12 13 13 12 10 10 9 9
6 5 3 5 5 6 7 7 6 4 6 6 6 7 9 10 10 10 10 11 12 15 18 19 21 22 21 23 22 19 21 20 17 15 16 15 14 12 13 14 13 13 13 13 12 8 9 10 9
4 4 4 4 4 4 5 7 6 7 5 6 8 8 9 8 8 8 8 9 9 11 14 17 18 18 19 21 20 19 19 18 17 16 17 16 13 14 14 15 14 14 13 12 12 11 11 11 9
5 5 4 4 5 4 4 8 5 5 4 5 7 7 7 7 6 6 6 5 7 9 12 15 16 17 18 18 18 19 18 18 18 17 16 15 15 14 14 13 14 14 13 13 13 13 12 12 11
Wind_Direction
263 82 89 69 71 153 236 235 231 247 238 222 211 183 177 183 179 193 133 139 140 155 162 161 159 156 153 150 146 143 140 138 135 133 132 130 128 126 124 120 116 112 109 106 104 101 101 100 98
216 113 78 84 154 218 244 228 229 238 233 254 236 176 154 194 182 130 137 150 148 155 160 159 159 156 153 150 148 145 142 140 138 137 135 132 130 128 125 122 117 114 111 108 106 104 104 103 99
232 155 134 150 196 211 228 223 225 245 255 245 242 187 166 174 161 162 161 150 149 156 159 160 159 157 154 151 150 147 145 143 141 140 138 135 132 130 127 124 121 117 114 111 108 106 106 105 101
101 100 140 203 230 223 221 238 247 289 295 246 189 153 161 182 172 166 145 148 150 155 157 161 161 159 156 153 152 150 148 146 144 142 141 138 135 132 129 126 123 121 118 115 112 110 108 107 102
102 149 212 234 238 240 241 253 270 280 276 271 186 166 199 320 140 138 144 150 152 154 157 162 162 160 158 156 154 152 150 149 147 145 144 140 137 134 130 129 127 125 123 119 116 114 111 110 103
182 175 212 232 238 243 247 252 262 264 263 262 204 167 209 142 136 146 149 151 153 154 157 163 163 161 159 157 155 153 152 151 150 149 147 143 139 137 135 134 132 130 127 123 120 118 115 113 105
189 201 225 233 241 244 243 240 239 249 255 244 187 157 173 172 154 146 146 146 150 153 156 161 163 161 160 159 157 156 155 154 153 152 149 145 143 143 141 139 136 134 131 128 124 121 119 115 106
194 213 233 229 235 243 239 238 235 231 248 237 171 164 190 193 153 138 139 143 149 154 158 158 158 160 160 160 159 157 157 156 156 153 149 147 147 146 145 144 141 137 134 132 129 125 122 116 105
187 226 233 224 223 237 236 251 264 258 242 250 211 194 190 153 141 139 143 147 157 162 163 160 157 157 157 158 160 159 159 159 155 152 149 146 145 145 146 147 145 144 141 138 135 132 127 116 103
201 229 234 228 218 238 258 259 271 294 285 284 321 17 133 148 153 156 161 165 168 171 170 167 162 160 158 161 160 159 159 159 154 152 148 145 144 145 148 151 151 148 144 143 141 139 131 116 97
214 234 244 246 249 258 266 270 271 259 264 244 220 168 152 160 165 168 171 173 174 173 172 171 167 163 162 160 160 159 157 156 154 152 150 148 146 148 150 151 153 149 146 143 142 137 132 124 113
245 249 246 251 258 260 262 267 271 252 247 248 214 177 166 171 175 178 177 177 173 173 175 173 169 167 165 162 163 160 160 161 160 160 157 154 152 152 153 151 152 151 150 147 145 148 148 138 130
243 254 257 259 259 261 262 259 261 265 262 260 210 183 180 180 185 185 180 175 173 176 177 175 173 172 169 164 168 167 166 168 166 165 165 162 160 161 160 160 160 161 161 159 157 158 154 146 137
248 259 264 261 260 260 259 261 257 257 257 239 210 197 197 191 187 182 177 177 178 179 178 176 176 175 172 172 173 171 171 171 170 171 171 167 167 167 165 164 167 172 174 171 166 166 160 153 137
255 263 268 256 250 246 257 260 247 249 247 238 224 209 205 205 193 189 186 184 182 182 179 178 179 177 176 175 175 175 175 173 175 177 175 173 172 171 169 168 171 180 179 171 162 160 150 134 123
246 244 249 245 236 238 226 251 249 239 231 238 228 219 210 211 204 198 193 188 184 181 180 180 180 180 179 178 177 176 177 177 180 179 180 178 176 174 171 171 177 181 173 163 153 151 142 132 130
224 234 242 254 229 232 225 250 253 229 227 236 231 219 215 212 212 207 197 192 187 183 181 181 181 181 181 178 177 176 177 179 182 180 181 182 179 178 174 174 178 175 167 162 163 155 147 143 143
218 228 242 241 235 233 242 252 260 248 233 236 233 225 220 216 213 207 201 196 191 186 184 183 182 181 179 176 174 174 177 182 183 183 184 182 182 180 176 174 175 171 164 166 162 154 145 146 147
249 251 256 258 264 257 252 257 259 255 251 244 238 231 226 224 219 209 203 197 192 188 186 185 184 182 178 180 180 181 186 186 187 187 185 183 183 181 178 175 173 172 174 173 163 150 146 143 132
249 255 259 269 258 260 264 266 261 249 245 243 238 235 230 229 226 215 207 199 194 192 189 188 187 184 184 186 186 185 179 181 183 182 185 185 184 183 183 177 179 176 172 170 169 154 148 157 157
248 245 252 261 280 265 274 272 254 251 246 245 240 234 231 225 223 217 209 202 197 195 193 191 190 187 188 184 175 163 157 156 175 187 190 190 187 186 185 183 179 179 178 182 180 170 160 169 189
252 244 251 259 259 251 218 266 251 236 243 243 240 235 232 230 225 218 211 204 200 198 195 193 191 189 188 182 179 178 182 187 193 189 188 187 188 187 187 184 182 183 184 183 185 180 170 163 179
246 248 248 247 246 256 231 250 267 221 234 237 235 234 234 230 226 220 212 207 202 197 195 194 192 191 188 186 185 186 191 193 178 173 179 186 190 190 188 186 186 187 188 187 185 181 180 176 176
247 257 268 250 228 246 229 223 262 220 225 232 234 233 232 229 225 223 216 206 202 197 193 192 191 192 190 189 189 190 192 185 175 180 186 190 191 193 192 190 191 191 191 190 189 187 186 189 183
226 198 233 231 219 239 207 214 246 232 227 227 231 234 234 232 229 228 221 209 202 197 194 192 192 193 192 191 192 194 194 190 189 188 190 189 191 196 197 194 195 194 193 190 185 188 192 191 189
218 196 202 217 220 249 204 226 244 232 233 231 234 239 240 236 231 228 224 213 204 199 194 192 194 194 192 193 195 196 194 194 196 193 192 195 199 200 193 195 196 194 190 189 188 192 194 193 195
205 215 213 233 262 256 240 258 280 251 251 248 249 252 253 245 238 232 230 219 206 200 196 194 194 196 194 194 194 195 194 195 196 193 192 196 197 193 189 192 192 191 190 190 188 196 195 190 196
212 192 183 205 218 237 246 244 243 238 251 263 261 261 263 260 248 239 231 224 212 202 198 195 194 196 195 194 195 196 196 196 195 191 195 197 194 188 187 190 192 191 191 190 190 191 187 189 193
213 204 215 221 224 220 248 255 217 210 229 251 259 269 267 263 257 250 242 227 214 200 195 194 195 195 195 195 194 193 193 194 191 193 195 196 192 189 189 191 192 192 191 189 191 193 186 192 193
211 204 199 221 241 229 246 266 269 245 268 278 282 287 288 282 271 265 257 232 211 199 196 193 194 194 195 194 191 192 191 189 190 194 194 191 191 191 190 187 189 192 192 191 193 194 191 193 194
Height
1502 1503 1504 1506 1509 1514 1511 1498 1488 1482 1479 1474 1473 1473 1473 1475 1478 1482 1476 1476 1479 1483 1488 1493 1497 1501 1505 1507 1510 1512 1514 1516 1518 1519 1521 1522 1524 1525 1526 1527 1528 1529 1530 1531 1531 1532 1532 1533 1534
1500 1502 1504 1504 1509 1514 1504 1489 1483 1476 1472 1471 1471 1471 1470 1470 1470 1471 1472 1476 1479 1483 1487 1491 1496 1500 1503 1506 1509 1511 1513 1516 1517 1519 1521 1522 1524 1525 1526 1527 1528 1529 1530 1531 1532 1532 1533 1534 1534
1498 1500 1501 1502 1504 1500 1491 1479 1474 1470 1470 1470 1469 1468 1468 1467 1468 1469 1471 1475 1479 1483 1487 1491 1495 1499 1502 1505 1508 1510 1513 1515 1517 1519 1520 1522 1524 1525 1527 1527 1528 1529 1530 1531 1532 1533 1534 1534 1535
1496 1498 1498 1499 1493 1483 1478 1471 1470 1470 1468 1466 1466 1467 1466 1467 1467 1469 1471 1474 1478 1482 1486 1490 1494 1498 1502 1504 1507 1510 1512 1514 1516 1518 1520 1522 1524 1525 1527 1528 1529 1530 1531 1532 1533 1534 1535 1535 1536
1493 1493 1496 1492 1483 1476 1471 1469 1470 1469 1468 1465 1464 1464 1465 1466 1467 1468 1470 1473 1476 1480 1485 1489 1494 1498 1501 1504 1506 1509 1511 1514 1516 1518 1520 1522 1523 1525 1527 1528 1529 1530 1531 1532 1534 1535 1535 1536 1537
1490 1488 1491 1483 1476 1471 1468 1467 1468 1468 1465 1463 1463 1463 1463 1464 1465 1467 1470 1473 1476 1479 1484 1489 1493 1497 1500 1503 1506 1508 1511 1513 1515 1518 1520 1521 1523 1525 1526 1528 1529 1531 1532 1533 1534 1535 1536 1537 1537
1485 1484 1480 1475 1472 1468 1463 1464 1465 1464 1462 1460 1459 1460 1461 1463 1464 1466 1469 1472 1476 1479 1483 1487 1492 1496 1499 1502 1505 1507 1510 1512 1515 1517 1519 1521 1523 1525 1526 1528 1530 1531 1532 1533 1535 1536 1537 1537 1538
1478 1478 1473 1470 1468 1463 1459 1460 1459 1459 1457 1455 1455 1456 1458 1460 1462 1465 1469 1472 1476 1479 1483 1486 1490 1494 1498 1501 1504 1507 1509 1512 1514 1516 1518 1520 1522 1525 1526 1528 1530 1531 1533 1534 1535 1536 1537 1538 1539
1474 1474 1464 1461 1461 1458 1456 1457 1455 1455 1453 1451 1451 1451 1451 1455 1459 1463 1467 1471 1475 1479 1482 1485 1489 1492 1496 1500 1503 1506 1508 1511 1513 1516 1518 1520 1522 1524 1526 1528 1530 1531 1533 1534 1535 1537 1538 1539 1540
1467 1462 1452 1453 1454 1454 1454 1453 1453 1453 1450 1449 1448 1448 1449 1452 1455 1458 1462 1466 1470 1474 1479 1483 1487 1490 1494 1498 1501 1504 1507 1510 1512 1514 1516 1519 1521 1524 1526 1528 1530 1532 1533 1535 1536 1537 1539 1540 1540
1458 1453 1450 1451 1452 1452 1451 1450 1450 1450 1449 1446 1446 1445 1447 1449 1452 1454 1457 1460 1464 1469 1475 1479 1484 1488 1492 1495 1499 1502 1505 1508 1511 1513 1515 1518 1520 1523 1525 1527 1529 1531 1533 1534 1536 1537 1539 1540 1541
1454 1449 1449 1449 1450 1450 1449 1448 1447 1445 1444 1444 1444 1443 1443 1446 1448 1451 1454 1458 1463 1468 1472 1476 1481 1485 1490 1493 1496 1500 1503 1506 1508 1511 1514 1516 1519 1522 1524 1526 1529 1531 1532 1534 1536 1538 1539 1540 1541
1450 1446 1446 1446 1447 1447 1446 1444 1443 1439 1439 1441 1442 1442 1441 1442 1445 1448 1451 1456 1460 1464 1469 1473 1478 1482 1487 1491 1494 1497 1501 1504 1507 1510 1513 1515 1518 1521 1523 1526 1528 1530 1532 1534 1536 1538 1539 1540 1541
1445 1444 1443 1443 1443 1443 1442 1439 1439 1432 1436 1437 1439 1439 1440 1440 1442 1447 1451 1454 1457 1461 1465 1470 1475 1479 1484 1487 1491 1495 1498 1502 1505 1508 1511 1514 1517 1519 1522 1524 1527 1529 1532 1534 1536 1537 1539 1540 1541
1445 1444 1440 1437 1438 1438 1440 1435 1429 1428 1432 1433 1434 1435 1437 1439 1440 1442 1445 1449 1452 1457 1462 1466 1471 1476 1480 1484 1489 1493 1496 1500 1503 1506 1509 1512 1515 1518 1521 1523 1526 1528 1531 1533 1535 1537 1539 1540 1541
1442 1442 1440 1431 1433 1433 1440 1429 1421 1425 1427 1427 1429 1431 1433 1435 1437 1439 1442 1445 1449 1453 1458 1463 1468 1472 1477 1481 1486 1490 1494 1497 1501 1504 1507 1510 1513 1516 1519 1522 1524 1527 1530 1532 1534 1536 1538 1539 1540
1441 1440 1435 1430 1428 1429 1430 1424 1419 1420 1422 1422 1423 1425 1427 1430 1432 1435 1438 1442 1446 1449 1454 1458 1463 1467 1473 1478 1483 1487 1491 1495 1498 1501 1505 1508 1511 1514 1517 1520 1523 1526 1528 1531 1533 1535 1537 1538 1539
1438 1436 1431 1429 1424 1425 1425 1420 1417 1417 1417 1416 1417 1419 1421 1423 1426 1429 1433 1438 1442 1445 1449 1454 1459 1463 1469 1475 1480 1484 1488 1492 1495 1498 1501 1505 1508 1512 1515 1518 1521 1524 1526 1529 1531 1533 1535 1537 1538
1431 1430 1429 1425 1423 1423 1420 1417 1415 1414 1413 1412 1412 1413 1415 1416 1420 1424 1428 1432 1436 1441 1444 1449 1454 1459 1464 1469 1473 1477 1481 1486 1490 1494 1498 1502 1505 1508 1512 1515 1518 1521 1523 1526 1529 1531 1533 1535 1536
1429 1429 1427 1424 1421 1421 1419 1414 1410 1408 1408 1407 1406 1407 1408 1411 1414 1417 1421 1425 1429 1433 1438 1442 1447 1452 1457 1462 1466 1471 1476 1481 1486 1490 1494 1498 1502 1505 1508 1511 1514 1517 1521 1523 1526 1528 1530 1532 1534
1425 1425 1424 1423 1421 1418 1420 1413 1406 1401 1401 1400 1400 1400 1401 1403 1406 1409 1414 1417 1422 1426 1430 1435 1440 1445 1450 1456 1462 1469 1474 1479 1483 1486 1489 1493 1497 1501 1504 1508 1511 1514 1517 1520 1522 1525 1527 1528 1531
1421 1418 1419 1420 1423 1423 1420 1417 1402 1397 1395 1393 1392 1392 1393 1396 1399 1402 1406 1410 1413 1417 1423 1428 1433 1438 1444 1450 1455 1460 1464 1468 1471 1477 1482 1488 1492 1496 1500 1504 1507 1510 1513 1516 1519 1521 1524 1526 1527
1416 1415 1416 1416 1419 1422 1418 1420 1400 1392 1389 1384 1384 1384 1386 1388 1392 1394 1397 1401 1406 1410 1416 1421 1426 1431 1437 1443 1447 1453 1457 1462 1468 1473 1478 1483 1488 1492 1496 1499 1503 1506 1509 1512 1515 1517 1520 1522 1523
1413 1415 1415 1415 1418 1420 1409 1414 1399 1388 1380 1377 1377 1377 1378 1381 1384 1387 1390 1394 1399 1403 1408 1413 1418 1424 1430 1435 1440 1445 1450 1456 1462 1467 1472 1477 1482 1486 1490 1494 1498 1501 1504 1507 1510 1513 1516 1518 1520
1413 1418 1423 1424 1421 1412 1399 1400 1388 1376 1372 1370 1370 1370 1372 1374 1377 1380 1383 1386 1390 1395 1400 1405 1410 1416 1422 1428 1433 1438 1443 1449 1454 1459 1465 1470 1475 1479 1483 1487 1491 1495 1499 1502 1506 1508 1511 1513 1515
1410 1412 1419 1419 1415 1404 1395 1389 1377 1369 1365 1364 1365 1366 1366 1368 1370 1372 1375 1379 1383 1387 1392 1397 1402 1408 1414 1420 1426 1431 1437 1443 1448 1454 1459 1463 1467 1472 1477 1481 1486 1490 1494 1497 1501 1504 1506 1509 1511
1407 1407 1407 1411 1408 1406 1395 1383 1372 1364 1362 1361 1361 1361 1361 1362 1363 1365 1368 1371 1375 1379 1384 1389 1395 1401 1406 1412 1418 1424 1430 1436 1441 1447 1452 1457 1462 1467 1472 1476 1481 1485 1489 1492 1496 1498 1501 1504 1506
1401 1402 1407 1409 1408 1402 1391 1383 1373 1364 1362 1359 1359 1358 1356 1356 1357 1359 1361 1364 1367 1371 1377 1382 1387 1393 1398 1405 1411 1417 1423 1429 1435 1440 1446 1451 1456 1461 1466 1470 1475 1479 1483 1487 1490 1493 1496 1498 1500
1401 1402 1402 1404 1403 1400 1393 1378 1360 1359 1358 1357 1355 1354 1353 1352 1352 1353 1355 1358 1361 1365 1370 1375 1380 1386 1392 1397 1404 1410 1416 1422 1428 1434 1439 1445 1450 1455 1460 1464 1469 1473 1477 1481 1484 1487 1490 1493 1495
1397 1399 1401 1405 1404 1398 1394 1377 1355 1354 1353 1353 1352 1351 1350 1350 1349 1349 1350 1351 1354 1358 1362 1367 1373 1378 1384 1390 1397 1403 1409 1415 1421 1427 1433 1438 1444 1449 1454 1459 1463 1467 1471 1475 1478 1481 1484 1487 1489